Regional Weather Roundup
Issued by NWS

Home | Current Version | Previous Version | Text Only | Print | Product List | Glossary Off
Versions: 1 2 3 4 5 6 7 8 9 10 11 12 13 14 15 16 17 18 19 20 21 22 23 24 25 26 27 28 29 30 31 32 33 34 35 36 37 38 39 40 41 42 43 44 45 46 47 48 49 50

000
ASUS43 KLOT 221803
RWRIL

ILLINOIS REGIONAL WEATHER ROUNDUP
NATIONAL WEATHER SERVICE CHICAGO/ROMEOVILLE IL
1200 PM CST WED FEB 22 2017

NOTE: "FAIR" INDICATES FEW OR NO CLOUDS BELOW 12,000 FEET WITH NO
SIGNIFICANT WEATHER AND/OR OBSTRUCTIONS TO VISIBILITY.

* THESE STATIONS ARE NOT UNDER NWS QUALITY CONTROL. THEY ALSO MAY NOT
  REPORT WEATHER SUCH AS PRECIPITATION OR FOG.

ILZ001-002-007-009-015-016-024-221900-
NORTHWEST ILLINOIS

CITY           SKY/WX    TMP DP  RH WIND       PRES   REMARKS
MOLINE         SUNNY     70  54  56 SW15G25   29.67F
STERLING*      SUNNY     65  56  72 SW10      29.71F
SAVANNA*       SUNNY     65  53  63 S15       29.67F
$$

ILZ003-004-008-010-011-017-018-221900-
NORTH CENTRAL ILLINOIS

CITY           SKY/WX    TMP DP  RH WIND       PRES   REMARKS
ROCKFORD       MOSUNNY   64  54  69 SW18G25   29.72F
6HR MIN TEMP:  50; 6HR MAX TEMP:  64;

FREEPORT*      SUNNY     62  53  73 SW22      29.71F
ROCHELLE*      PTSUNNY   61  56  85 SW17      29.72F
DE KALB*       PTSUNNY   60  56  88 SW21      29.73F
PERU*          PTSUNNY   63  54  74 SW13G20   29.74F
$$

ILZ005-006-012>014-019>023-221900-
NORTHEAST ILLINOIS

CITY           SKY/WX    TMP DP  RH WIND       PRES   REMARKS
CHICAGO-OHARE  PTSUNNY   61  52  72 SW10G21   29.73F
6HR MIN TEMP:  53; 6HR MAX TEMP:  61;

CHICAGO-MIDWAY PTSUNNY   59  52  77 SW13      29.75F
6HR MIN TEMP:  53; 6HR MAX TEMP:  59;

AURORA         CLOUDY    60  54  80 S10       29.74F HAZE
6HR MIN TEMP:  53; 6HR MAX TEMP:  61;

LANSING*       CLOUDY    58  56  95 W10       29.77F FOG
JOLIET*        CLOUDY    58  56  93 SW8       29.76F
WAUKEGAN       PTSUNNY   63  53  70 SW21G29   29.70F
6HR MIN TEMP:  52; 6HR MAX TEMP:  63;

DUPAGE AIRPORT PTSUNNY   60  53  77 S13       29.73F
6HR MIN TEMP:  52; 6HR MAX TEMP:  62;

KANKAKEE*      CLOUDY    59  58  97 S8        29.78F FOG
WHEELING       SUNNY     63  52  67 SW14G22   29.73F
6HR MIN TEMP:  52; 6HR MAX TEMP:  63;

MORRIS*        CLOUDY    56  55  95 S10       29.75F
ROMEOVILLE*    CLOUDY    57  57 100 SW12      29.76F FOG
NORTHERLY ISL    N/A     58  51  78 S12         N/A
$$

LMZ740>746-221900-
SOUTHERN LAKE MICHIGAN

STATION/POSITION SKY/WX   TEMP    WIND        PRES    VSBY  WAVE
                          AIR SEA DIR/SP/G                  HT/PER
                          (F)     (DEG/KT/KT) (MB)    (MI)  (FT/S)
HARRISON CRIB              56     210/ 16/ 16   N/A
BURNHAM HARBOR             58     180/  7/ 13   N/A
CALUMET HARBOR             55     200/ 11/ 17 1007.6F
BURNS HARBOR               58     210/ 15/ 19 1008.8F
MICHIGAN CITY              57     160/  9/ 11   N/A
$$

ILZ025>027-034>036-040-047-049-050-058-095>099-221900-
WEST-CENTRAL ILLINOIS

CITY           SKY/WX    TMP DP  RH WIND       PRES   REMARKS
QUINCY         PTSUNNY   63  57  81 S15       29.75F
GALESBURG*     MOSUNNY   64  57  80 S15G21    29.72F
MACOMB*        MOSUNNY   61  61  99 SW13G20   29.77F
JACKSONVILLE*  CLOUDY    57  56  95 S8        29.78F FOG
PITTSFIELD*    CLOUDY    58  57  95 S12       29.79F
$$

ILZ028>032-037-038-041>044-048-051>054-059>061-221900-
CENTRAL ILLINOIS

CITY           SKY/WX    TMP DP  RH WIND       PRES   REMARKS
PONTIAC        CLOUDY    57  57  98 SW13      29.78F FOG
BLOOMINGTON    CLOUDY    58  55  90 SW15      29.79F FOG
DECATUR        PTSUNNY   66  56  70 SW14      29.79F
PEORIA         CLOUDY    58  57  97 S10       29.76F
6HR MIN TEMP:  53; 6HR MAX TEMP:  58;

LACON*         PTSUNNY   60  55  83 SW10      29.74F
LINCOLN*       CLOUDY    61  60  94 SW6       29.78F FOG
SPRINGFIELD    CLOUDY    57  55  93 SW10      29.80F FOG
6HR MIN TEMP:  45; 6HR MAX TEMP:  58;

TAYLORVILLE    CLOUDY    60  56  85 SW14      29.81F HAZE
6HR MIN TEMP:  45; 6HR MAX TEMP:  60;

$$

ILZ033-039-045-046-055>057-062-063-221900-
EAST-CENTRAL ILLINOIS

CITY           SKY/WX    TMP DP  RH WIND       PRES   REMARKS
CHAMPAIGN      MOSUNNY   67  56  67 S16       29.79F
RANTOUL*       PTSUNNY   67  58  71 S10       29.78F
MATTOON        CLOUDY    62  57  83 S14G20    29.81F
PARIS*         CLOUDY    60  56  88 S12       29.82F
$$

ILZ079-100>102-221900-
SOUTHWEST ILLINOIS

CITY           SKY/WX    TMP DP  RH WIND       PRES   REMARKS
ALTON          CLOUDY    55  55 100 SW7       29.83F FOG
BELLEVILLE     SUNNY     70  59  67 S8        29.79F
CAHOKIA*       MOSUNNY   67  56  67 W7        29.81F
SPARTA*        SUNNY     68  57  67 S10       29.83F
$$

ILZ064>066-069>071-074>076-080>082-084>086-088>090-092>094-221900-
SOUTH-CENTRAL ILLINOIS

CITY           SKY/WX    TMP DP  RH WIND       PRES   REMARKS
CARBONDALE     SUNNY     70  57  63 S13       29.83F
6HR MIN TEMP:  51; 6HR MAX TEMP:  70;

CAIRO*         PTSUNNY   65  56  72 S5        29.86F
EFFINGHAM*     PTSUNNY   67  60  76 SW9       29.83F
MARION         MOSUNNY   72  57  60 S12       29.86F
MT. VERNON     SUNNY     70  57  63 SW10      29.83F
CENTRALIA*     SUNNY     71  58  65 S13G21    29.81F
SALEM*         SUNNY     70  56  62 S10       29.83F
METROPOLIS*    CLOUDY    65  57  74 CALM      29.87F
$$

ILZ067-068-072-073-078-083-087-091-221900-
SOUTHEAST ILLINOIS

CITY           SKY/WX    TMP DP  RH WIND       PRES   REMARKS
LAWRENCEVILLE  PTSUNNY   65  58  78 S10       29.84F
FLORA*         MOSUNNY   67  59  73 S10       29.84F
FAIRFIELD*     MOSUNNY   66  57  72 S7        29.83F
HARRISBURG*    PTSUNNY   67  59  74 CALM      29.86F
ROBINSON*      PTSUNNY   66  57  73 S7        29.84F
CARMI*         CLOUDY    64  58  80 SW8       29.85F
$$

ABBREVIATIONS USED IN REMARKS
   TC - TEMPERATURE IN CELSIUS
  WCI - WIND CHILL INDEX
   HX - HEAT INDEX
  VSB - VISIBILITY
$$





USA.gov is the U.S. government's official web portal to all federal, state and local government web resources and services.